Simultaneous Nadir Overpasses (SNOs) Predictions

Prediction of SNOs between METOP-C and LANDSAT-8 Satellite Orbit:

Table of predicted SNOs for the next 14.0 days since TLE Epoch: 12/10/2022
Index Date (METOP-C) Time (METOP-C) Lat,Lon (METOP-C) SZA (METOP-C ) Date (LANDSAT-8) Time (LANDSAT-8) Lat,Lon (LANDSAT-8) SZA (LANDSAT-8 ) Distance(km) Time Diff (sec)
1 12/10/2022 22:58:02 -81.10, 54.80 73.89 12/10/2022 22:59:00 -81.11, 54.86 73.86 1.17 58
2 12/10/2022 23:48:42 81.11,-137.42 106.17 12/10/2022 23:48:26 81.11,-137.39 106.17 0.49 16
3 12/13/2022 18:32:25 -81.10, 121.14 73.73 12/13/2022 18:33:14 -81.10, 121.23 73.69 1.70 49
4 12/13/2022 19:23:04 81.13, -70.67 106.39 12/13/2022 19:22:39 81.13, -70.68 106.38 0.52 25
5 12/16/2022 14:06:47 -81.09,-172.58 73.63 12/16/2022 14:07:27 -81.09,-172.53 73.61 1.02 40
6 12/16/2022 14:57:26 81.12, -4.37 106.49 12/16/2022 14:56:52 81.11, -4.48 106.46 2.03 34
7 12/19/2022 09:41:08 -81.11,-105.61 73.51 12/19/2022 09:41:39 -81.11,-105.70 73.50 1.59 31
8 12/19/2022 10:31:49 81.12, 61.88 106.52 12/19/2022 10:31:05 81.11, 61.96 106.51 1.43 44
9 12/22/2022 05:15:31 -81.10, -39.45 73.55 12/22/2022 05:15:52 -81.10, -39.38 73.53 1.20 21



Historial Predications of SNOs between METOP-C and LANDSAT-8
